AirNav   Air Wisconsin pilot careers
 
 1036 users online  

X10 Belle Glade State Municipal Airport
Belle Glade, Florida, USA

GOING TO BELLE GLADE?


FAA INFORMATION EFFECTIVE 11 OCTOBER 2018

Location

FAA Identifier: X10
Lat/Long: 26-41-53.9000N / 080-39-38.9000W
26-41.898333N / 080-39.648333W
26.6983056 / -80.6608056
(estimated)
Elevation: 14 ft. / 4 m (estimated)
Variation: 03W (1985)
From city: 1 mile NE of BELLE GLADE, FL
Time zone: UTC -4 (UTC -5 during Standard Time)
Zip code: 33430

Airport Operations

Airport use: Open to the public
Activation date: 04/1940
Control tower: no
ARTCC: MIAMI CENTER
FSS: MIAMI FLIGHT SERVICE STATION
NOTAMs facility: MIA (NOTAM-D service available)
Attendance: UNATNDD
Wind indicator: lighted, WIND SOCK TORN OFF
Segmented circle: no

Airport Communications

CTAF: 122.9

Nearby radio navigation aids

VOR radial/distance  VOR name  Freq  Var
PHKr162/5.3PAHOKEE VOR/DME115.4000E
PBIr275/30.8PALM BEACH VORTAC115.7003W
LBVr100/39.9LA BELLE VORTAC110.4001E

 
NDB name  Hdg/Dist  Freq  Var  ID
UNITED239/21.540505WUTX ..- - -..-

Airport Services

Airframe service: NONE
Powerplant service: NONE
Bottled oxygen: NONE
Bulk oxygen: NONE

Runway Information

Runway 9/27

Dimensions: 3750 x 50 ft. / 1143 x 15 m
Surface: asphalt, in excellent condition
RUNWAY 9  RUNWAY 27
Latitude: 26-41.898167N26-41.897333N
Longitude: 080-39.992167W080-39.303000W
Elevation: 14.0 ft.11.0 ft.
Gradient: 0.1%0.1%
Traffic pattern: leftleft
Runway heading: 093 magnetic, 090 true273 magnetic, 270 true
Displaced threshold: 225 ft.75 ft.
Declared distances: TORA:3750 TODA:3750TORA:3750 TODA:3750
Markings: basic, in good conditionbasic, in good condition
Obstructions: 35 ft. tree, 900 ft. from runway, 30 ft. left of centerline, 20:1 slope to clear52 ft. pole, 1374 ft. from runway, 30 ft. left of centerline, 22:1 slope to clear

Airport Ownership and Management from official FAA records

Ownership: Publicly-owned
Owner: CITY OF BELLE GLADE
110 DR. MARTIN LUTHER KING JR. BLVD
BELLE GLADE, FL 33430-3900
Phone 561-996-0100
CONTACT PERSON: LOMAX HARRELLE 561-992-1601
Manager: MARCOS MONTES DE OCA
110 DR. MARTIN LUTHER KING JR. BLVD
BELLE GLADE, FL 33430
Phone 561-996-0100

Airport Operational Statistics

Aircraft based on the field: 11
Single engine airplanes: 10
Helicopters: 1
    
Aircraft operations: avg 34/week *
67% local general aviation
33% transient general aviation
* for 12-month period ending 22 March 2017

Additional Remarks

RY 09 NIGHT LNDGS NOT ADVISED DUE TO UNLGTD POWER LINES IN APCH.
BERM FULL LENGTH OF RY 113 FT N OF CNTRLN, RY 09/27.

Instrument Procedures

There are no published instrument procedures at X10.

Some nearby airports with instrument procedures:

KPHK - Palm Beach County Glades Airport (5 nm N)
2IS - Airglades Airport (21 nm W)
06FA - William P Gwinn Airport (22 nm NE)
F45 - North Palm Beach County General Aviation Airport (25 nm E)
KPBI - Palm Beach International Airport (30 nm E)
 
Loc | Ops | Rwys | IFR | FBO | Links
Com | Nav | Svcs | Stats | Notes

Reliance Aviation
AirBoss

 
Area around X10 (Belle Glade State Municipal Airport)
 
Road maps at: MapQuest Bing Google
 
Aerial photo
WARNING: Photo may not be current or correct
Aerial photo of X10 (Belle Glade State Municipal Airport)
Do you have a better or more recent aerial photo of Belle Glade State Municipal Airport that you would like to share? If so, please send us your photo.

 
Sectional chart

 
Airport distance calculator
Flying to Belle Glade State Municipal Airport? Find the distance to fly.

From to X10

Sunrise and sunset
Times for 16-Oct-2018
 Local
(UTC-4)
 Zulu
(UTC)
Morning civil twilight07:0011:00
Sunrise07:2411:24
Sunset18:5322:53
Evening civil twilight19:1623:16

Current date and time
Zulu (UTC)  17-Oct-2018 01:46:28
Local (UTC-4)  16-Oct-2018 21:46:28
 
METAR
KF45 
25nm E 
170135Z AUTO 03003KT 10SM CLR 25/24 A3009 RMK AO2
KPBI 
30nm E 
170053Z 12011KT 10SM FEW025 28/23 A3009 RMK AO2 SLP188 T02780233 $
KLNA 
32nm E 
170135Z AUTO 10005KT 10SM CLR 28/24 A3010 RMK AO2 T02760236
KOBE 
35nm N 
170135Z AUTO 07003KT 10SM BKN060 BKN080 25/23 A3011 RMK AO2
KBCT 
36nm SE 
170059Z 12012KT 10SM SCT024 28/24 A3008
KSUA 
38nm NE 
170047Z 10008KT 4SM BR BKN015 28/24 A3010
KFXE 
39nm SE 
170053Z 09011KT 10SM SCT030 28/24 A3007 RMK AO2 SLP185 T02830244
KPMP 
40nm SE 
170053Z AUTO 09010KT 10SM SCT024 29/24 A3007 RMK AO2 SLP185 T02890239
KIMM 
43nm W 
170135Z AUTO 08005KT 10SM CLR 25/23 A3008 RMK A01
KFLL 
47nm SE 
170053Z 09012KT 10SM SCT023 28/26 A3006 RMK AO2 SLP178 T02830256 $
TAF
KPBI 
30nm E 
162059Z 1621/1718 09015KT P6SM SCT025 FM170000 10011KT P6SM SCT025 FM171400 11014KT P6SM SCT025
KSUA 
38nm NE 
161728Z 1618/1718 10012KT P6SM SCT035 FM170300 11005KT P6SM FEW025 FM171500 11008KT P6SM FEW030
NOTAMs
Click for the latest NOTAMs
NOTAMs are issued by the DoD/FAA and will open in a separate window not controlled by AirNav.

 

 
 

Would you like to see your business listed on this page?

 If your business provides an interesting product or service to pilots, flight crews, aircraft, or users of the Belle Glade State Municipal Airport, you should consider listing it here.  To start the listing process, click on the button below
 
Add a business
 

Other Pages about Belle Glade State Municipal Airport

Update a link
 
Copyright © AirNav, LLC. All rights reserved. Privacy Policy  Contact